Date,TemperatureHighF,TemperatureAvgF,TemperatureLowF,DewpointHighF,DewpointAvgF,DewpointLowF,HumidityHigh,HumidityAvg,HumidityLow,PressureMaxIn,PressureMinIn,WindSpeedMaxMPH,WindSpeedAvgMPH,GustSpeedMaxMPH,PrecipitationSumIn
2012-1-1,51.4,45.3,41.4,44.8,39.7,34.7,86,81,75,30.12,29.69,6,3,9,0.03
2012-1-2,32.0,31.9,31.8,25.3,25.2,25.1,76,76,76,29.97,29.97,4,4,10,0.00
2012-1-6,52.3,52.3,52.3,37.6,37.6,37.6,57,57,57,29.88,29.88,4,4,6,0.00
2012-1-13,24.1,24.1,24.1,20.8,20.8,20.8,87,87,87,29.67,29.67,3,3,8,0.00
2012-1-17,51.3,49.5,47.8,43.6,43.4,43.2,84,80,75,29.66,29.57,4,2,14,0.43
2012-1-18,26.2,26.2,26.2,17.5,17.5,17.5,69,69,69,30.23,30.23,2,2,7,0.00
2012-1-22,41.5,41.5,41.5,34.6,34.6,34.6,76,76,76,30.05,30.05,0,0,0,0.00
2012-1-23,56.7,49.3,43.5,50.2,44.1,38.4,84,82,79,29.74,29.61,5,5,9,0.16
2012-1-28,37.2,37.2,37.2,32.5,32.5,32.5,83,83,83,29.89,29.89,3,3,3,0.00
2012-1-29,37.4,37.4,37.4,26.0,26.0,26.0,63,63,63,30.05,30.05,3,3,6,0.00
2012-1-31,63.0,59.5,55.8,41.3,38.8,36.3,48,46,45,30.04,29.96,6,5,9,0.00
2012-2-1,49.5,49.5,49.5,44.2,44.2,43.8,82,82,82,30.06,30.06,3,2,7,0.11
2012-2-12,28.6,26.0,20.3,21.1,19.6,15.4,81,76,73,30.14,30.11,2,0,3,0.03
2012-2-13,41.5,30.7,20.3,24.8,18.9,14.9,80,62,47,30.16,30.03,2,0,6,27.52
2012-2-14,37.8,36.0,32.5,33.5,31.9,27.7,87,85,82,30.03,29.90,2,0,4,0.05
2012-2-15,47.1,41.6,36.1,34.0,33.2,32.4,86,73,60,30.20,30.13,2,1,4,0.00
2012-2-18,42.1,37.2,32.4,29.2,26.3,23.4,69,64,60,30.20,30.06,7,4,17,0.00
2012-2-20,39.2,39.2,39.2,25.3,25.3,25.3,22,22,22,30.29,30.29,1,1,2,0.00
2012-2-21,44.8,40.0,38.5,40.3,35.5,32.6,31,24,21,29.85,29.72,4,4,7,0.03
2012-2-23,40.5,39.9,39.7,36.2,35.9,35.2,24,24,23,29.65,29.57,0,0,0,0.03
2012-2-24,46.4,41.2,37.4,41.0,36.0,32.5,34,26,20,29.55,29.37,8,3,19,0.03
2012-2-25,34.9,32.8,30.4,31.0,28.9,27.0,16,13,9,29.88,29.71,2,2,13,0.00
2012-2-26,41.7,41.6,41.5,23.4,23.2,23.0,48,48,47,30.13,30.12,4,4,7,0.00
2012-2-27,57.0,46.0,39.9,33.6,27.4,23.0,53,48,37,30.18,30.06,7,3,14,0.00
2012-2-28,36.3,29.7,26.2,31.1,24.3,21.8,84,80,73,30.42,30.39,0,0,0,0.00
2012-2-29,72.1,43.5,38.7,53.0,36.8,31.3,87,78,51,30.19,29.63,3,0,7,0.57
2012-3-1,54.9,44.1,40.3,40.4,34.6,31.4,80,69,58,29.88,29.64,11,2,11,0.00
2012-3-2,52.3,49.0,43.2,47.4,41.4,35.1,86,75,67,29.83,29.47,2,1,5,0.05
2012-3-3,48.0,40.2,36.1,39.8,31.7,26.3,75,71,67,29.78,29.47,6,4,12,0.00
2012-3-4,32.9,32.9,32.9,26.8,26.8,26.8,78,78,78,29.87,29.87,0,0,0,0.00
2012-3-5,30.0,29.9,29.7,25.5,24.0,22.4,83,78,74,30.36,30.16,2,1,2,0.00
2012-3-6,41.2,36.6,33.3,28.8,26.4,24.6,70,66,61,30.45,30.33,4,3,9,0.08
2012-3-7,70.2,69.2,68.2,43.4,41.8,40.2,38,37,36,30.19,30.15,6,6,8,0.00
2012-3-8,60.3,48.3,43.5,54.4,44.0,39.9,87,85,78,30.03,29.93,6,4,15,0.22
2012-3-9,38.5,37.3,36.1,30.7,27.4,22.0,77,68,51,30.40,30.25,6,4,7,0.03
2012-3-11,70.3,70.3,70.3,31.9,31.9,31.9,24,24,24,30.30,30.30,4,4,5,0.00
2012-3-12,56.3,54.7,53.1,51.8,50.4,49.0,86,86,85,30.19,30.10,4,3,5,0.00
2012-3-14,80.2,75.6,72.9,52.1,48.5,45.2,40,38,37,30.17,30.11,4,3,10,0.00
2012-3-15,76.6,71.7,60.8,61.3,57.3,51.2,82,61,51,30.15,30.03,7,5,16,0.16
2012-3-16,59.9,59.5,59.0,55.7,55.4,55.1,87,86,86,30.16,30.05,2,0,2,0.30
2012-3-17,82.0,69.1,54.9,64.6,60.7,49.8,83,76,45,30.25,30.13,2,1,6,0.00
2012-3-18,76.5,71.9,62.1,62.8,61.3,57.5,86,70,61,30.16,30.06,4,3,10,0.57
2012-3-19,79.0,66.9,52.2,71.2,60.4,47.2,84,80,72,30.15,30.06,1,0,4,0.03
2012-3-20,85.5,83.5,75.2,67.8,64.0,59.4,59,52,48,30.16,30.08,2,1,4,0.00
2012-3-21,88.0,81.3,79.3,61.3,60.1,58.5,51,49,41,30.14,30.07,3,2,7,0.00
2012-3-22,68.9,68.6,68.0,61.4,59.5,54.3,78,73,60,30.14,30.05,1,1,1,0.00
2012-3-23,76.1,67.9,59.5,57.3,54.7,53.1,85,64,47,30.06,29.87,3,1,11,0.00
2012-3-24,68.0,64.6,61.2,63.0,57.7,52.4,84,78,73,29.82,29.81,0,0,2,0.14
2012-3-25,52.9,52.9,52.9,48.8,48.8,48.8,86,86,86,29.94,29.94,1,1,3,0.00
2012-3-26,37.9,37.9,37.9,22.4,22.4,22.4,53,53,53,30.33,30.33,0,0,0,0.00
2012-3-27,55.4,47.8,31.8,27.5,24.5,21.4,65,42,34,30.35,29.98,5,2,5,0.00
2012-3-28,77.2,74.4,58.8,53.2,44.7,40.5,66,36,28,29.85,29.67,8,7,25,0.00
2012-3-29,44.8,43.3,41.2,34.9,33.8,31.8,70,69,68,30.14,30.05,1,1,4,0.00
2012-3-30,55.0,46.4,38.5,40.6,38.1,31.6,83,73,55,30.06,29.75,4,2,7,0.00
2012-4-1,54.3,54.3,54.3,43.6,43.6,43.6,67,67,67,29.79,29.79,2,2,5,0.00
2012-4-2,53.4,48.0,40.5,39.8,36.1,30.8,68,63,56,30.06,30.04,3,2,5,0.00
2012-4-3,54.7,52.6,49.3,42.7,39.1,32.6,69,61,43,30.06,29.91,3,1,9,0.03
2012-4-4,61.5,61.2,61.0,38.9,38.9,38.8,44,44,43,29.91,29.90,2,2,2,0.00
2012-4-5,47.5,46.5,45.5,35.4,35.2,34.9,67,64,63,30.04,30.04,4,3,9,0.00
2012-4-6,43.0,43.0,43.0,36.0,36.0,35.4,76,76,76,30.22,30.22,2,1,9,0.00
2012-4-7,61.7,61.7,61.7,25.6,25.6,25.6,25,25,25,30.27,30.27,1,1,3,0.00
2012-4-8,63.5,60.7,57.9,30.7,30.2,29.7,34,32,29,30.02,30.00,6,5,12,0.00
2012-4-9,61.0,56.5,54.1,35.2,33.3,32.2,43,41,38,29.86,29.84,5,4,5,0.00
2012-4-10,41.2,41.2,41.2,33.5,33.5,33.5,74,74,74,29.94,29.94,2,2,2,0.00
2012-4-11,44.8,44.8,44.8,37.7,37.7,37.7,76,76,76,30.14,30.14,3,3,7,0.00
2012-4-12,60.4,55.8,50.9,39.3,36.4,32.4,59,48,39,30.26,30.16,2,1,5,0.00
2012-4-13,61.7,61.6,61.5,33.8,33.7,33.6,35,35,35,30.24,30.24,1,1,2,0.00
2012-4-14,57.4,57.4,57.4,53.2,53.2,53.2,86,86,86,29.99,29.99,3,3,5,0.00
2012-4-15,81.9,81.9,81.9,55.8,55.8,55.8,41,41,41,29.86,29.86,5,5,8,0.00
2012-4-16,81.1,71.7,62.2,53.1,49.2,45.4,54,46,38,30.05,29.81,7,5,8,0.00
2012-4-17,54.3,53.0,52.2,42.0,39.8,38.6,63,61,59,30.34,30.32,1,1,2,0.00
2012-4-18,52.9,52.9,52.9,40.2,40.2,40.2,62,62,62,30.27,30.27,0,0,0,0.00
2012-4-19,67.1,67.1,67.1,49.4,49.4,49.4,53,53,53,30.06,30.06,2,2,2,0.00
2012-4-20,80.4,78.3,68.0,54.0,52.9,50.2,53,42,39,29.83,29.68,6,5,16,0.00
2012-4-21,44.1,44.1,44.1,40.1,40.1,40.1,86,86,86,29.96,29.96,1,0,2,0.16
2012-4-22,45.9,45.8,45.7,37.7,37.6,37.5,73,73,73,29.95,29.94,3,3,4,0.00
2012-4-23,45.1,45.1,45.1,38.0,38.0,38.0,76,76,76,29.85,29.85,1,1,4,0.00
2012-4-24,63.1,53.0,46.2,31.0,29.9,28.6,51,42,27,29.64,29.54,4,3,9,0.00
2012-4-25,61.3,56.8,54.1,42.2,40.5,37.5,64,55,41,29.87,29.87,2,1,2,0.00
2012-4-26,55.6,55.6,55.6,49.5,49.5,49.5,80,80,80,29.69,29.69,0,0,0,0.00
2012-4-27,49.3,49.2,49.1,29.2,29.0,27.8,46,46,45,30.24,30.24,3,2,6,0.00
2012-4-29,54.1,53.4,53.4,39.9,39.9,39.9,60,60,60,30.32,30.32,2,2,2,0.00
2012-4-30,70.9,65.6,57.4,57.2,52.0,45.3,79,62,53,30.06,29.87,2,1,4,0.03
2012-5-1,57.9,56.5,55.0,53.4,52.2,50.9,86,86,85,30.09,30.09,0,0,0,0.11
2012-5-2,86.5,82.7,79.0,69.2,67.9,66.6,72,62,52,29.96,29.88,4,3,7,0.84
2012-5-3,83.5,81.3,80.1,71.8,69.3,65.0,76,68,54,30.02,29.90,2,2,6,0.00
2012-5-4,80.8,78.6,74.5,67.9,66.6,64.4,71,67,65,29.95,29.91,4,2,4,0.00
2012-5-6,62.1,57.9,50.5,50.3,46.6,43.7,84,68,51,30.08,29.98,1,0,3,0.00
2012-5-7,80.8,76.4,56.7,65.7,63.6,51.6,83,65,58,29.93,29.82,2,2,5,0.08
2012-5-8,64.6,61.5,59.9,59.6,57.1,55.4,86,86,84,29.81,29.77,0,0,0,0.54
2012-5-9,65.1,61.8,55.6,55.1,51.2,48.1,76,69,60,29.80,29.78,3,1,3,0.00
2012-5-14,65.7,63.2,60.8,58.2,50.9,43.6,77,65,53,30.08,30.02,1,0,2,0.00
2012-5-15,80.8,80.5,80.4,51.3,51.1,51.0,36,36,36,29.91,29.91,2,2,3,0.00
2012-5-16,64.2,59.8,58.1,53.4,52.2,51.6,79,76,68,30.00,29.94,2,2,4,0.00
2012-5-17,59.5,59.5,59.5,43.8,43.8,43.8,56,56,56,30.21,30.21,1,1,2,0.00
2012-5-18,67.8,65.2,58.1,47.6,45.6,44.6,68,50,44,30.17,30.09,0,0,0,0.00
2012-5-20,83.7,80.7,62.1,61.6,56.7,51.8,69,45,36,30.18,30.08,2,1,4,0.00
2012-5-21,81.3,74.5,71.1,61.4,60.7,60.4,69,63,51,29.96,29.93,2,2,2,0.00
2012-5-22,61.3,60.1,59.5,56.1,55.4,55.0,85,84,83,29.99,29.98,1,0,0,0.00
2012-5-23,68.0,68.0,68.0,58.2,58.2,58.2,71,71,71,29.99,29.99,2,2,3,0.00
2012-5-24,86.4,81.6,77.4,67.3,66.1,64.3,71,60,50,29.97,29.87,3,2,9,0.00
2012-5-25,81.0,77.6,72.9,67.7,66.5,65.7,84,69,63,30.01,29.95,3,2,6,0.16
2012-5-26,73.9,73.9,73.9,61.4,58.6,55.7,65,59,53,30.17,30.15,4,2,4,0.00
2012-5-27,76.5,75.4,74.7,63.4,62.5,62.0,65,64,64,30.07,30.06,4,4,5,0.00
2012-5-28,93.7,92.2,84.7,75.1,70.5,69.2,73,50,47,29.99,29.85,4,3,11,0.00
2012-5-29,77.2,72.7,70.7,65.6,63.9,60.2,84,75,56,29.85,29.77,1,0,0,0.30
2012-5-30,74.5,74.3,73.9,54.0,53.5,53.0,49,48,48,29.83,29.83,4,2,5,0.00
2012-5-31,59.5,59.5,59.5,53.0,53.0,53.0,79,79,79,30.00,30.00,1,1,0,0.00
2012-6-1,67.5,63.4,57.9,62.8,59.2,53.8,87,86,85,29.67,29.57,2,1,4,0.62
2012-6-2,70.2,70.1,70.0,51.7,51.6,51.5,52,52,52,29.75,29.75,4,4,6,0.03
2012-6-3,72.5,72.2,71.8,53.2,53.0,52.8,52,51,50,29.76,29.75,3,2,9,0.05
2012-6-6,79.2,74.1,68.9,53.4,52.8,52.1,55,48,41,30.03,29.99,2,1,2,0.00
2012-6-7,73.6,72.9,72.3,63.6,63.2,62.8,74,72,69,30.06,30.06,1,1,3,0.00
2012-6-8,74.5,74.5,74.5,65.2,65.2,65.2,73,73,73,30.04,30.04,0,0,0,0.00
2012-6-9,87.4,84.5,81.7,57.9,57.2,56.7,43,40,36,29.95,29.94,2,2,8,0.00
2012-6-10,88.2,75.2,69.4,57.8,55.5,54.5,59,51,36,30.03,30.00,1,0,1,0.00
2012-6-11,80.8,80.8,80.8,65.6,65.6,65.6,60,60,60,29.99,29.99,3,3,4,0.00
2012-6-12,78.6,78.6,78.6,72.3,72.3,72.3,81,81,81,29.89,29.89,2,2,4,0.00
2012-6-13,61.7,61.7,61.7,53.3,53.3,53.3,74,74,74,30.17,30.17,0,0,0,0.00
2012-6-14,71.6,70.5,69.4,61.2,59.3,57.4,75,68,61,30.21,30.15,2,1,5,0.00
2012-6-15,83.7,83.7,83.7,63.6,63.6,63.6,51,51,51,30.17,30.17,2,2,4,0.00
2012-6-16,87.4,82.1,76.8,63.7,62.6,61.5,64,53,42,30.22,30.14,2,2,4,0.00
2012-6-17,70.3,70.3,70.3,65.6,65.6,65.6,85,85,85,29.89,29.89,1,1,0,0.00
2012-6-18,86.5,78.9,71.2,71.1,68.9,66.5,85,73,60,29.91,29.89,0,0,1,0.22
2012-6-19,92.3,89.2,77.5,71.6,70.7,68.5,78,55,46,30.06,30.03,4,3,9,0.00
2012-6-20,93.9,88.0,81.7,71.0,69.2,67.0,69,55,44,30.15,30.03,2,1,5,0.00
2012-6-21,90.5,88.7,81.0,69.4,67.2,65.4,68,50,44,30.01,29.89,4,3,8,0.00
2012-6-23,72.1,72.1,72.1,54.6,54.6,54.6,54,54,54,30.03,30.03,0,0,0,0.00
2012-6-24,84.0,84.0,84.0,60.4,60.4,60.4,45,45,45,30.00,30.00,2,2,0,0.00
2012-6-25,67.1,66.4,65.8,49.9,49.8,49.7,56,55,54,30.01,30.01,2,2,2,0.00
2012-6-26,70.0,70.0,70.0,53.6,53.6,53.6,56,56,56,29.95,29.95,0,0,0,0.00
2012-6-27,80.8,78.8,77.7,60.7,59.1,56.2,56,51,43,30.04,29.93,3,2,8,0.00
2012-6-28,95.7,83.3,76.5,70.6,64.4,60.1,57,54,44,29.88,29.75,2,1,6,0.00
2012-6-29,88.0,86.7,84.4,75.6,75.1,74.3,72,69,67,29.87,29.86,2,1,2,0.00
2012-6-30,71.6,71.5,71.4,66.5,66.4,66.3,84,84,84,29.91,29.88,0,0,0,0.00
2012-7-1,86.7,83.2,73.6,66.3,65.5,64.4,78,57,49,30.01,29.97,2,1,3,0.16
2012-7-2,79.3,77.8,76.3,70.7,67.4,64.2,83,72,60,30.08,29.99,0,0,0,0.00
2012-7-3,80.2,74.5,69.8,70.4,64.8,61.3,87,72,62,30.06,29.98,4,1,7,0.92
2012-7-4,90.7,90.7,90.7,75.3,75.3,75.3,61,61,61,29.85,29.85,2,2,2,0.00
2012-7-5,82.6,73.3,70.9,73.8,68.2,66.5,86,84,75,30.04,29.95,2,1,6,0.43
2012-7-6,91.6,90.1,82.4,78.6,77.6,75.3,84,67,60,30.00,29.98,2,1,7,0.00
2012-7-7,97.3,95.7,80.6,81.4,78.5,71.9,75,58,49,29.96,29.92,4,2,11,0.00
2012-7-8,80.8,80.8,80.8,66.5,66.5,66.5,62,62,62,30.00,30.00,2,2,3,0.00
2012-7-9,75.6,74.8,74.1,64.2,63.3,62.4,68,68,67,30.07,30.00,1,1,1,0.00
2012-7-10,78.3,76.9,75.4,66.9,63.3,59.7,75,64,53,30.11,30.08,2,1,4,0.00
2012-7-11,71.4,71.4,71.4,66.3,66.3,66.3,84,84,84,30.17,30.17,0,0,0,0.00
2012-7-12,83.7,80.9,75.7,68.7,67.3,66.1,73,64,58,30.16,30.11,2,1,4,0.00
2012-7-13,86.4,81.5,76.6,64.9,63.8,62.6,62,56,49,30.19,30.17,2,2,2,0.00
2012-7-14,73.8,73.8,73.8,66.5,66.5,66.5,78,78,78,30.16,30.16,1,1,1,0.00
2012-7-15,85.6,78.9,76.5,76.4,72.4,70.5,85,81,73,30.11,30.01,2,0,3,0.22
2012-7-16,88.0,84.5,82.2,74.3,71.8,67.9,77,66,60,30.03,29.92,1,1,4,0.00
2012-7-17,96.1,90.3,81.7,73.4,72.5,71.3,71,57,47,29.93,29.86,3,2,6,0.00
2012-7-18,85.8,85.8,85.8,76.1,76.1,76.1,73,73,73,29.98,29.98,1,1,3,0.00
2012-7-19,81.5,77.0,73.8,74.3,71.4,69.6,87,83,79,29.99,29.90,2,1,6,0.51
2012-7-20,73.2,72.0,71.4,67.4,65.5,64.9,83,80,77,30.03,30.02,4,3,6,0.03
2012-7-22,87.6,87.6,87.6,68.3,68.3,68.3,53,53,53,30.06,30.06,2,2,2,0.00
2012-7-23,92.3,89.8,84.0,73.4,68.8,67.8,64,51,45,30.00,29.88,5,4,7,0.00
2012-7-24,82.2,78.2,74.5,70.7,63.5,56.2,69,61,53,29.95,29.90,2,1,3,0.00
2012-7-25,88.3,80.5,73.0,62.7,60.3,57.9,70,53,36,30.00,29.88,3,2,3,0.00
2012-7-26,91.6,84.0,74.8,76.2,73.3,69.3,85,71,60,29.74,29.66,4,2,8,0.16
2012-7-27,82.9,76.8,73.9,74.6,70.9,67.4,86,82,75,29.92,29.85,4,1,13,0.11
2012-7-28,74.3,74.2,74.1,69.8,68.7,67.5,86,83,80,30.08,30.01,1,1,4,0.62
2012-7-29,80.1,80.0,79.9,61.9,61.8,61.7,54,54,54,30.13,30.12,2,2,2,0.00
2012-7-30,84.0,82.0,80.1,66.3,65.9,65.5,63,59,54,30.06,29.98,1,1,2,0.00
2012-7-31,86.9,86.8,86.7,67.7,67.6,67.5,53,53,53,29.90,29.90,3,2,9,0.00
2012-8-3,89.1,85.8,80.6,72.7,71.2,70.2,77,63,54,30.02,29.96,3,2,4,0.00
2012-8-4,89.6,87.1,85.8,74.3,73.3,72.7,65,64,61,30.04,30.00,4,3,4,0.00
2012-8-5,82.2,81.3,80.8,74.3,68.7,65.7,77,66,60,30.03,30.01,0,0,0,0.16
2012-8-6,71.4,71.4,71.4,59.0,59.0,59.0,65,65,65,30.06,30.06,0,0,0,0.00
2012-8-7,77.7,77.7,77.7,63.6,63.6,63.6,62,62,62,30.06,30.06,0,0,0,0.00
2012-8-8,83.7,80.7,75.0,72.0,69.2,63.7,69,68,68,30.00,29.94,2,1,10,0.00
2012-8-9,67.5,67.4,67.3,63.4,63.3,63.3,87,87,87,29.99,29.99,0,0,0,0.68
2012-8-10,72.1,69.0,65.8,66.3,63.4,60.5,83,82,82,29.76,29.72,0,0,1,0.68
2012-8-11,67.1,67.1,67.1,62.4,62.4,62.4,85,85,85,29.89,29.89,2,2,2,0.00
2012-8-12,75.6,75.4,75.2,65.1,64.9,64.7,70,70,70,30.00,30.00,3,3,9,0.00
2012-8-13,69.6,69.6,69.6,63.9,63.9,63.9,82,82,82,29.96,29.96,0,0,0,0.00
2012-8-14,69.6,66.9,65.8,63.9,62.3,61.5,87,85,82,29.93,29.89,0,0,2,0.70
2012-8-16,85.8,85.5,85.3,65.0,64.5,64.1,50,50,49,29.94,29.94,3,3,5,0.00
2012-8-17,75.7,75.7,75.7,61.8,61.8,61.8,62,62,62,29.92,29.92,2,2,3,0.00
2012-8-18,73.2,73.2,73.2,58.0,58.0,58.0,59,59,59,30.00,30.00,2,2,4,0.00
2012-8-19,75.4,75.4,75.4,59.1,59.1,59.1,57,57,57,29.90,29.90,2,2,4,0.00
2012-8-21,67.8,67.7,67.5,61.4,61.4,61.4,81,80,80,30.08,30.08,2,1,6,0.00
2012-8-22,75.4,75.4,75.4,64.9,64.9,64.9,70,70,70,30.16,30.16,1,1,2,0.00
2012-8-23,80.1,80.1,80.1,60.3,60.3,60.3,51,51,51,30.10,30.10,1,1,2,0.00
2012-8-25,77.5,77.5,77.5,64.4,64.4,64.0,64,64,64,30.12,30.12,0,0,0,0.00
2012-8-26,87.3,87.3,87.3,62.0,62.0,62.0,43,43,43,30.13,30.13,1,1,1,0.00
2012-8-27,72.1,71.3,70.2,65.6,65.2,64.7,83,81,80,30.02,29.98,1,0,2,0.89
2012-8-30,80.8,80.7,80.4,61.7,61.6,61.5,53,52,52,30.11,30.11,1,1,1,0.00
2012-8-31,92.5,92.5,92.5,70.5,70.5,70.5,49,49,49,30.04,30.04,3,3,3,0.00
2012-9-2,78.3,75.3,73.8,70.4,67.8,66.5,78,78,77,30.06,30.02,0,0,2,0.32
2012-9-3,83.3,83.3,83.3,75.3,75.3,75.3,77,77,77,29.93,29.93,2,2,4,0.00
2012-9-4,74.7,74.7,74.7,67.7,67.7,67.7,79,79,79,29.85,29.85,0,0,0,0.00
2012-9-7,70.7,70.7,70.7,66.0,66.0,66.0,85,85,85,29.75,29.75,0,0,0,0.00
2012-9-8,62.2,62.2,62.2,55.6,55.6,55.6,79,79,79,29.77,29.77,1,1,3,0.00
2012-9-14,64.9,61.3,59.2,60.3,57.5,55.3,88,87,85,30.26,30.24,2,1,9,0.16
2012-9-15,68.7,68.7,68.7,56.0,56.0,56.0,64,64,64,30.29,30.29,0,0,0,0.00
2012-9-18,65.1,65.1,65.1,59.5,59.5,59.5,82,82,82,29.62,29.62,0,0,0,0.00
2012-9-20,64.4,64.4,64.4,47.9,47.9,47.9,55,55,55,29.99,29.99,0,0,0,0.00
2012-9-22,63.7,61.1,57.7,56.2,51.7,48.8,79,71,68,29.86,29.81,4,2,8,0.24
2012-9-25,63.9,63.7,63.5,51.5,51.5,51.4,65,64,64,30.01,30.01,0,0,0,0.00
2012-9-26,63.9,63.9,63.9,57.2,57.2,57.2,79,79,79,29.99,29.99,0,0,0,0.00
2012-9-27,61.5,61.2,61.0,52.0,51.5,51.1,71,70,70,30.17,30.12,0,0,0,0.00
2012-10-5,65.7,62.0,59.5,60.0,57.6,56.0,88,86,82,30.02,30.01,0,0,6,0.16
2012-10-12,54.1,54.1,54.1,38.3,38.3,38.3,55,55,55,30.33,30.33,1,1,3,0.00
2012-10-14,73.9,70.6,68.9,62.8,62.4,61.8,81,76,66,29.70,29.57,6,6,10,0.00
2012-10-15,54.1,53.5,52.5,47.8,46.6,44.5,79,77,74,29.87,29.78,3,3,9,0.00
2012-10-17,59.9,59.9,59.9,47.7,47.7,47.7,64,64,64,29.78,29.78,2,2,2,0.00
2012-10-18,54.0,54.0,54.0,47.3,47.3,47.3,78,78,78,29.59,29.59,2,2,2,0.00
2012-10-19,62.2,62.2,62.2,38.3,38.3,38.3,41,41,41,29.56,29.56,3,3,6,0.00
2012-10-20,55.0,55.0,55.0,47.3,47.1,46.9,75,74,74,29.74,29.74,3,2,5,0.00
2012-10-23,64.0,64.0,64.0,58.8,58.8,58.8,83,83,83,29.95,29.95,2,2,4,0.00
2012-10-24,80.1,80.1,80.1,62.4,62.4,62.4,55,55,55,29.98,29.98,2,2,0,0.00
2012-10-25,65.7,65.6,65.3,56.8,56.8,56.8,74,73,73,30.01,30.01,2,2,3,0.00
2012-10-26,53.4,53.2,52.7,49.6,49.5,48.9,87,87,87,30.10,30.10,1,0,2,0.03
2012-10-27,49.5,48.8,48.4,43.9,43.2,42.8,81,81,81,30.06,30.04,2,1,5,0.43
2012-10-28,47.7,45.8,41.9,42.8,40.8,37.1,83,83,82,30.04,29.98,3,2,4,0.05
2012-10-29,44.1,43.3,42.4,38.9,38.3,37.3,83,82,82,29.87,29.51,9,6,26,0.87
2012-10-30,47.3,44.5,43.3,42.7,39.8,38.5,84,83,83,29.46,29.25,10,7,27,0.73
2012-10-31,42.6,42.5,42.4,38.4,38.3,38.3,85,85,85,29.52,29.52,2,2,6,0.84
2012-11-2,42.8,42.7,42.6,37.4,37.3,37.2,81,81,81,29.84,29.84,1,1,9,0.00
2012-11-7,48.6,48.6,48.6,34.9,34.7,34.5,59,58,58,29.99,29.96,1,1,3,0.00
2012-11-11,69.8,69.8,69.8,45.7,45.7,45.7,42,42,42,30.17,30.17,4,4,4,0.00
2012-11-12,64.4,60.3,55.9,55.5,53.9,51.4,87,80,63,30.01,29.98,8,6,23,0.08
2012-11-18,48.6,48.6,48.6,40.7,40.7,40.7,74,74,74,30.50,30.50,1,1,0,0.00
2012-12-1,57.0,55.8,55.0,46.2,45.9,45.4,70,69,67,30.20,30.17,4,2,6,0.46
2012-12-2,55.9,55.4,54.5,50.7,50.0,48.3,87,82,78,30.08,30.01,5,3,11,0.60
2012-12-3,62.1,62.1,62.1,55.1,55.1,55.1,78,78,78,30.09,30.09,2,2,2,0.00
2012-12-4,64.2,59.1,49.6,55.8,52.4,45.3,86,79,73,30.04,30.00,5,3,14,0.27
2012-12-5,38.5,37.6,37.0,32.0,29.2,27.8,79,72,67,30.37,30.30,2,2,8,0.00
2012-12-9,50.7,50.6,50.5,45.9,45.8,45.8,84,84,83,29.81,29.80,3,3,5,0.24
2012-12-10,45.5,45.4,45.3,40.0,39.9,39.8,81,81,81,29.68,29.68,2,1,4,0.00
2012-12-11,39.6,37.9,36.5,34.2,32.9,32.1,85,82,77,30.06,30.03,2,1,7,0.00
2012-12-12,40.8,37.7,31.8,31.3,30.3,27.1,83,74,68,30.36,30.34,4,2,6,0.00
2012-12-13,43.5,42.1,40.5,33.8,32.8,32.0,77,69,64,30.38,30.34,3,2,8,0.00
2012-12-17,45.5,45.5,45.5,40.3,40.3,40.3,82,82,82,29.68,29.68,0,0,0,0.00
2012-12-18,43.3,41.7,40.6,39.4,37.1,34.7,86,84,79,29.83,29.62,2,1,5,0.41
2012-12-19,42.1,41.2,39.4,37.9,37.0,35.3,85,85,85,30.14,30.00,0,0,0,0.00
2012-12-20,47.7,46.9,44.8,43.2,39.1,38.0,85,74,70,29.70,29.36,8,2,17,0.27
2012-12-21,36.0,31.7,30.6,32.2,27.3,26.0,86,83,83,29.62,29.33,6,5,20,0.00
2012-12-23,37.8,37.8,37.8,28.2,28.1,27.8,68,68,67,29.93,29.93,1,1,3,0.00
2012-12-25,37.8,37.3,35.8,32.3,31.8,30.8,82,80,80,30.23,30.20,1,1,5,0.00
2012-12-26,32.2,31.5,30.6,28.8,27.3,24.3,87,84,75,30.00,29.73,4,2,8,0.00
2012-12-28,30.4,30.4,30.4,26.1,26.1,26.1,84,84,84,30.03,30.03,0,0,0,0.00
2012-12-29,36.3,35.7,34.9,32.8,32.2,31.4,87,87,87,29.82,29.79,1,1,1,0.00
2012-12-30,26.8,25.0,23.0,21.8,20.2,18.6,83,82,81,30.33,30.33,3,2,5,0.00